Tunica, MS

8:20 AM CDT on March 28, 2017 (GMT -0500)
Tunica

Weather History for KUTA - February, 2013

Change the Weather History Date:

Friday, February 22, 2013

  Actual Average (KAWM) Record (KAWM)
Temperature  
Mean Temperature 40 °F -  
Max Temperature 46 °F 60 °F 82 °F (2014)
Min Temperature 33 °F 38 °F 10 °F (1963)
Degree Days  
Heating Degree Days 26    
Moisture  
Dew Point 37 °F    
Average Humidity 90    
Maximum Humidity 100    
Minimum Humidity 76    
Precipitation  
Precipitation 0.00 in - - ()
Sea Level Pressure  
Sea Level Pressure 30.04 in    
Wind  
Wind Speed 3 mph (NW)    
Max Wind Speed 13 mph    
Max Gust Speed -    
Visibility 7 miles    
Events Fog    
Averages and records for this station are not official NWS values.
T = Trace of Precipitation, MM = Missing Value Source: NWS Daily Summary

Daily Weather History Graph

Daily Weather History Graph

Search for Another Location

Airport or City:

Trip Planner

Search our weather history database for the weather conditions in past years. The results will help you decide how hot, cold, wet, or windy it might be!

Date:

Astronomy

Feb. 22, 2013 Rise Set
Actual Time 6:38 AM CST 5:51 PM CST
Civil Twilight 6:13 AM CST 6:16 PM CST
Nautical Twilight 5:43 AM CST 6:46 PM CST
Astronomical Twilight 5:14 AM CST 7:15 PM CST
Moon 3:07 PM CST (2/22) 4:18 AM CST (2/22)
Length of Visible Light 12h 03m
Length of Day
11h 12m
Waxing Gibbous, 90% of the Moon is Illuminated
Feb 22
Waxing Gibbous
Feb 25
Full
Mar 4
Last Quarter
Mar 11
New
Mar 19
First Quarter

Hourly Weather History & Observations

Time (CST) Temp. Windchill Dew Point Humidity Pressure Visibility Wind Dir Wind Speed Gust Speed Precip Events Conditions
12:15 AM 39.2 °F 35.9 °F 37.4 °F 93% 29.91 in 1.2 mi WNW 4.6 mph - N/A   Overcast
12:35 AM 37.4 °F 34.9 °F 37.4 °F 100% 29.91 in 0.5 mi West 3.5 mph - N/A Fog Fog
12:55 AM 37.4 °F 34.9 °F 37.4 °F 100% 29.93 in 0.2 mi NNW 3.5 mph - N/A Fog Fog
1:15 AM 37.4 °F - 35.6 °F 93% 29.94 in 0.2 mi Calm Calm - N/A Fog Fog
1:35 AM 37.4 °F - 35.6 °F 93% 29.94 in 0.2 mi Calm Calm - N/A Fog Fog
1:55 AM 37.4 °F - 35.6 °F 93% 29.94 in 0.2 mi Calm Calm - N/A Fog Fog
2:15 AM 37.4 °F - 35.6 °F 93% 29.94 in 0.2 mi Calm Calm - N/A Fog Fog
2:35 AM 37.4 °F - 35.6 °F 93% 29.94 in 0.2 mi Calm Calm - N/A Fog Fog
2:55 AM 37.4 °F - 35.6 °F 93% 29.94 in 0.2 mi Calm Calm - N/A Fog Fog
3:15 AM 35.6 °F - 35.6 °F 100% 29.95 in 0.2 mi Calm Calm - N/A Fog Fog
3:35 AM 35.6 °F - 35.6 °F 100% 29.95 in 0.5 mi Calm Calm - N/A Fog Fog
3:55 AM 37.4 °F 34.9 °F 35.6 °F 93% 29.96 in 0.2 mi SW 3.5 mph - N/A Fog Fog
4:15 AM 35.6 °F - 35.6 °F 100% 29.97 in 0.2 mi Calm Calm - N/A Fog Fog
4:35 AM 35.6 °F - 35.6 °F 100% 29.98 in 0.2 mi Calm Calm - N/A Fog Fog
4:55 AM 35.6 °F 30.7 °F 35.6 °F 100% 29.99 in 0.2 mi West 5.8 mph - N/A Fog Fog
5:15 AM 35.6 °F 32.8 °F 33.8 °F 93% 29.99 in 0.5 mi WSW 3.5 mph - N/A Fog Fog
5:35 AM 35.6 °F - 33.8 °F 93% 30.00 in 0.2 mi Calm Calm - N/A Fog Fog
6:15 AM 35.6 °F 30.7 °F 33.8 °F 93% 30.01 in 0.5 mi NW 5.8 mph - N/A Fog Fog
6:35 AM 35.6 °F 29.9 °F 33.8 °F 93% 30.01 in 0.5 mi NW 6.9 mph - N/A Fog Fog
6:55 AM 33.8 °F 28.6 °F 33.8 °F 100% 30.03 in 0.5 mi West 5.8 mph - N/A Fog Fog
7:15 AM 33.8 °F 27.7 °F 33.8 °F 100% 30.05 in 0.2 mi West 6.9 mph - N/A Fog Fog
7:35 AM 33.8 °F 27.7 °F 33.8 °F 100% 30.08 in 0.8 mi West 6.9 mph - N/A   Overcast
7:55 AM 33.8 °F 27.7 °F 33.8 °F 100% 30.08 in 3.0 mi WSW 6.9 mph - N/A   Overcast
8:15 AM 33.8 °F 28.6 °F 33.8 °F 100% 30.08 in 1.2 mi WSW 5.8 mph - N/A   Overcast
8:35 AM 35.6 °F 29.9 °F 33.8 °F 93% 30.09 in 5.0 mi WNW 6.9 mph - N/A   Overcast
8:55 AM 35.6 °F - 35.6 °F 100% 30.10 in 10.0 mi Calm Calm - N/A   Overcast
9:15 AM 35.6 °F 31.7 °F 35.6 °F 100% 30.10 in 10.0 mi West 4.6 mph - N/A   Overcast
9:35 AM 35.6 °F 32.8 °F 35.6 °F 100% 30.11 in 10.0 mi WSW 3.5 mph - N/A   Overcast
9:55 AM 35.6 °F - 35.6 °F 100% 30.11 in 10.0 mi Calm Calm - N/A   Overcast
10:15 AM 37.4 °F 34.9 °F 35.6 °F 93% 30.12 in 10.0 mi SW 3.5 mph - N/A   Overcast
10:35 AM 37.4 °F - 35.6 °F 93% 30.12 in 10.0 mi Calm Calm - N/A   Overcast
10:55 AM 37.4 °F - 37.4 °F 100% 30.11 in 10.0 mi Calm Calm - N/A   Overcast
11:15 AM 37.4 °F - 37.4 °F 100% 30.10 in 10.0 mi Calm Calm - N/A   Overcast
11:35 AM 41.0 °F - 39.2 °F 93% 30.09 in 10.0 mi Calm Calm - N/A   Mostly Cloudy
11:55 AM 41.0 °F - 39.2 °F 93% 30.09 in 10.0 mi Calm Calm - N/A   Overcast
12:15 PM 41.0 °F - 39.2 °F 93% 30.09 in 10.0 mi Calm Calm - N/A   Overcast
12:35 PM 41.0 °F 37.1 °F 41.0 °F 100% 30.08 in 10.0 mi SSE 5.8 mph - N/A   Mostly Cloudy
12:55 PM 41.0 °F 39.0 °F 41.0 °F 100% 30.07 in 10.0 mi South 3.5 mph - N/A   Overcast
1:15 PM 42.8 °F - 37.4 °F 81% 30.06 in 10.0 mi Calm Calm - N/A   Mostly Cloudy
1:35 PM 42.8 °F - 37.4 °F 81% 30.06 in 10.0 mi Calm Calm - N/A   Scattered Clouds
1:55 PM 44.6 °F - 37.4 °F 76% 30.04 in 10.0 mi Calm Calm - N/A   Scattered Clouds
2:15 PM 44.6 °F 43.1 °F 39.2 °F 81% 30.03 in 10.0 mi NNE 3.5 mph - N/A   Scattered Clouds
2:35 PM 44.6 °F 43.1 °F 39.2 °F 81% 30.03 in 10.0 mi South 3.5 mph - N/A   Scattered Clouds
2:55 PM 46.4 °F - 39.2 °F 76% 30.02 in 10.0 mi Calm Calm - N/A   Mostly Cloudy
3:15 PM 46.4 °F 45.2 °F 41.0 °F 81% 30.01 in 10.0 mi North 3.5 mph - N/A   Scattered Clouds
3:35 PM 46.4 °F - 41.0 °F 81% 30.03 in 10.0 mi Calm Calm - N/A   Scattered Clouds
3:55 PM 46.4 °F 45.2 °F 41.0 °F 81% 30.02 in 10.0 mi East 3.5 mph - N/A   Scattered Clouds
4:15 PM 46.4 °F - 41.0 °F 81% 30.03 in 10.0 mi Calm Calm - N/A   Clear
4:35 PM 46.4 °F - 41.0 °F 81% 30.02 in 10.0 mi Calm Calm - N/A   Clear
4:55 PM 46.4 °F - 41.0 °F 81% 30.03 in 10.0 mi Calm Calm - N/A   Clear
5:15 PM 46.4 °F - 41.0 °F 81% 30.03 in 10.0 mi Calm Calm - N/A   Clear
5:35 PM 44.6 °F 43.1 °F 41.0 °F 87% 30.03 in 10.0 mi SE 3.5 mph - N/A   Clear
5:55 PM 44.6 °F - 41.0 °F 87% 30.05 in 10.0 mi Calm Calm - N/A   Clear
6:15 PM 44.6 °F 43.1 °F 41.0 °F 87% 30.05 in 10.0 mi SSE 3.5 mph - N/A   Clear
6:35 PM 44.6 °F - 41.0 °F 87% 30.06 in 10.0 mi Calm Calm - N/A   Clear
6:55 PM 44.6 °F - 39.2 °F 81% 30.06 in 10.0 mi Calm Calm - N/A   Clear
7:15 PM 44.6 °F - 41.0 °F 87% 30.06 in 10.0 mi Calm Calm - N/A   Clear
7:35 PM 44.6 °F - 41.0 °F 87% 30.07 in 10.0 mi Calm Calm - N/A   Clear
7:55 PM 42.8 °F 37.5 °F 39.2 °F 87% 30.06 in 10.0 mi NNW 9.2 mph - N/A   Scattered Clouds
8:15 PM 44.6 °F 39.2 °F 39.2 °F 81% 30.07 in 10.0 mi North 10.4 mph - N/A   Mostly Cloudy
8:35 PM 42.8 °F 37.5 °F 37.4 °F 81% 30.08 in 10.0 mi North 9.2 mph - N/A   Scattered Clouds
8:55 PM 42.8 °F 37.0 °F 37.4 °F 81% 30.08 in 10.0 mi North 10.4 mph - N/A   Clear
9:15 PM 42.8 °F 36.2 °F 37.4 °F 81% 30.08 in 10.0 mi North 12.7 mph - N/A   Clear
9:35 PM 41.0 °F 34.3 °F 37.4 °F 87% 30.09 in 10.0 mi North 11.5 mph - N/A   Clear
9:55 PM 41.0 °F 35.8 °F 37.4 °F 87% 30.09 in 10.0 mi North 8.1 mph - N/A   Clear
10:15 PM 41.0 °F 34.7 °F 37.4 °F 87% 30.08 in 10.0 mi North 10.4 mph - N/A   Clear
10:35 PM 41.0 °F 34.7 °F 35.6 °F 81% 30.08 in 10.0 mi North 10.4 mph - N/A   Clear
10:55 PM 41.0 °F 34.7 °F 35.6 °F 81% 30.07 in 10.0 mi North 10.4 mph - N/A   Clear
11:15 PM 39.2 °F 32.0 °F 33.8 °F 81% 30.08 in 10.0 mi North 11.5 mph - N/A   Clear
11:35 PM 39.2 °F 33.0 °F 33.8 °F 81% 30.08 in 10.0 mi North 9.2 mph - N/A   Clear
11:55 PM 37.4 °F 30.8 °F 33.8 °F 87% 30.08 in 10.0 mi North 9.2 mph - N/A   Clear